Date_Time,Julian_Date,Latitude,Longitude,Instrument_Depth,U,V,Speed,Direction
(yyyy-mm-dd hh:mn:ss UTC),(JD),(+ deg. North),(+ deg. East),(m),(cm/s),(cm/s),(cm/s),(deg True)
1981-07-08 20:00:00 UTC,2444794.333333,28.7317,-95.2428,0109,-1.25,-11.93,12.0000,186.0000
1981-07-08 20:30:00 UTC,2444794.354167,28.7317,-95.2428,0109,-1.05,-11.95,12.0000,185.0000
1981-07-08 21:00:00 UTC,2444794.375000,28.7317,-95.2428,0109,-0.91,-12.97,13.0000,184.0000
1981-07-08 21:30:00 UTC,2444794.395833,28.7317,-95.2428,0109,-1.31,-14.94,15.0000,185.0000
1981-07-08 22:00:00 UTC,2444794.416667,28.7317,-95.2428,0109,-1.67,-15.91,16.0000,186.0000
1981-07-08 22:30:00 UTC,2444794.437500,28.7317,-95.2428,0109,-2.23,-15.84,16.0000,188.0000
1981-07-08 23:00:00 UTC,2444794.458333,28.7317,-95.2428,0109,-3.24,-16.69,17.0000,191.0000
1981-07-08 23:30:00 UTC,2444794.479167,28.7317,-95.2428,0109,-4.35,-17.47,18.0000,194.0000
1981-07-09 00:00:00 UTC,2444794.500000,28.7317,-95.2428,0109,-4.66,-17.39,18.0000,195.0000
1981-07-09 00:30:00 UTC,2444794.520833,28.7317,-95.2428,0109,-4.05,-17.54,18.0000,193.0000
1981-07-09 01:00:00 UTC,2444794.541667,28.7317,-95.2428,0109,-3.63,-18.65,19.0000,191.0000
1981-07-09 01:30:00 UTC,2444794.562500,28.7317,-95.2428,0109,-4.50,-19.49,20.0000,193.0000
1981-07-09 02:00:00 UTC,2444794.583333,28.7317,-95.2428,0109,-6.14,-20.08,21.0000,197.0000
1981-07-09 02:30:00 UTC,2444794.604167,28.7317,-95.2428,0109,-6.84,-19.86,21.0000,199.0000
1981-07-09 03:00:00 UTC,2444794.625000,28.7317,-95.2428,0109,-6.84,-19.86,21.0000,199.0000
1981-07-09 03:30:00 UTC,2444794.645833,28.7317,-95.2428,0109,-6.49,-19.97,21.0000,198.0000
1981-07-09 04:00:00 UTC,2444794.666667,28.7317,-95.2428,0109,-7.52,-20.67,22.0000,200.0000
1981-07-09 04:30:00 UTC,2444794.687500,28.7317,-95.2428,0109,-8.24,-20.40,22.0000,202.0000
1981-07-09 05:00:00 UTC,2444794.708333,28.7317,-95.2428,0109,-8.60,-20.25,22.0000,203.0000
1981-07-09 05:30:00 UTC,2444794.729167,28.7317,-95.2428,0109,-9.30,-19.94,22.0000,205.0000
1981-07-09 06:00:00 UTC,2444794.750000,28.7317,-95.2428,0109,-9.08,-17.82,20.0000,207.0000
1981-07-09 06:30:00 UTC,2444794.770833,28.7317,-95.2428,0109,-9.21,-16.62,19.0000,209.0000
1981-07-09 07:00:00 UTC,2444794.791667,28.7317,-95.2428,0109,-10.60,-16.96,20.0000,212.0000
1981-07-09 07:30:00 UTC,2444794.812500,28.7317,-95.2428,0109,-11.13,-17.81,21.0000,212.0000
1981-07-09 08:00:00 UTC,2444794.833333,28.7317,-95.2428,0109,-11.44,-17.61,21.0000,213.0000
1981-07-09 08:30:00 UTC,2444794.854167,28.7317,-95.2428,0109,-12.93,-16.55,21.0000,218.0000
1981-07-09 09:00:00 UTC,2444794.875000,28.7317,-95.2428,0109,-13.38,-14.86,20.0000,222.0000
1981-07-09 09:30:00 UTC,2444794.895833,28.7317,-95.2428,0109,-14.85,-14.85,21.0000,225.0000
1981-07-09 10:00:00 UTC,2444794.916667,28.7317,-95.2428,0109,-15.32,-12.86,20.0000,230.0000
1981-07-09 10:30:00 UTC,2444794.937500,28.7317,-95.2428,0109,-16.29,-9.79,19.0000,239.0000
1981-07-09 11:00:00 UTC,2444794.958333,28.7317,-95.2428,0109,-17.74,-6.81,19.0000,249.0000
1981-07-09 11:30:00 UTC,2444794.979167,28.7317,-95.2428,0109,-17.73,-3.13,18.0000,260.0000
1981-07-09 12:00:00 UTC,2444795.000000,28.7317,-95.2428,0109,-16.99,0.59,17.0000,272.0000
1981-07-09 12:30:00 UTC,2444795.020833,28.7317,-95.2428,0109,-16.87,2.07,17.0000,277.0000
1981-07-09 13:00:00 UTC,2444795.041667,28.7317,-95.2428,0109,-16.96,1.19,17.0000,274.0000
1981-07-09 13:30:00 UTC,2444795.062500,28.7317,-95.2428,0109,-17.93,1.57,18.0000,275.0000
1981-07-09 14:00:00 UTC,2444795.083333,28.7317,-95.2428,0109,-16.50,4.11,17.0000,284.0000
1981-07-09 14:30:00 UTC,2444795.104167,28.7317,-95.2428,0109,-15.65,6.64,17.0000,293.0000
1981-07-09 15:00:00 UTC,2444795.125000,28.7317,-95.2428,0109,-14.72,8.50,17.0000,300.0000
1981-07-09 15:30:00 UTC,2444795.145833,28.7317,-95.2428,0109,-13.21,10.70,17.0000,309.0000
1981-07-09 16:00:00 UTC,2444795.166667,28.7317,-95.2428,0109,-8.62,11.03,14.0000,322.0000
1981-07-09 16:30:00 UTC,2444795.187500,28.7317,-95.2428,0109,-5.26,10.79,12.0000,334.0000
1981-07-09 17:00:00 UTC,2444795.208333,28.7317,-95.2428,0109,-3.94,10.27,11.0000,339.0000
1981-07-09 17:30:00 UTC,2444795.229167,28.7317,-95.2428,0109,-3.03,10.57,11.0000,344.0000
1981-07-09 18:00:00 UTC,2444795.250000,28.7317,-95.2428,0109,-0.52,9.99,10.0000,357.0000
1981-07-09 18:30:00 UTC,2444795.270833,28.7317,-95.2428,0109,2.33,8.69,9.0000,15.0000
1981-07-09 19:00:00 UTC,2444795.291667,28.7317,-95.2428,0109,3.39,6.12,7.0000,29.0000
1981-07-09 19:30:00 UTC,2444795.312500,28.7317,-95.2428,0109,3.28,3.77,5.0000,41.0000
1981-07-09 20:00:00 UTC,2444795.333333,28.7317,-95.2428,0109,3.50,1.94,4.0000,61.0000
1981-07-09 20:30:00 UTC,2444795.354167,28.7317,-95.2428,0109,3.86,1.04,4.0000,75.0000
1981-07-09 21:00:00 UTC,2444795.375000,28.7317,-95.2428,0109,4.89,1.04,5.0000,78.0000
1981-07-09 21:30:00 UTC,2444795.395833,28.7317,-95.2428,0109,6.87,1.34,7.0000,79.0000
1981-07-09 22:00:00 UTC,2444795.416667,28.7317,-95.2428,0109,7.96,0.84,8.0000,84.0000
1981-07-09 22:30:00 UTC,2444795.437500,28.7317,-95.2428,0109,8.93,-1.10,9.0000,97.0000
1981-07-09 23:00:00 UTC,2444795.458333,28.7317,-95.2428,0109,9.27,-3.75,10.0000,112.0000
1981-07-09 23:30:00 UTC,2444795.479167,28.7317,-95.2428,0109,8.48,-5.30,10.0000,122.0000
1981-07-10 00:00:00 UTC,2444795.500000,28.7317,-95.2428,0109,7.31,-6.82,10.0000,133.0000
1981-07-10 00:30:00 UTC,2444795.520833,28.7317,-95.2428,0109,6.77,-8.67,11.0000,142.0000
1981-07-10 01:00:00 UTC,2444795.541667,28.7317,-95.2428,0109,5.83,-9.33,11.0000,148.0000
1981-07-10 01:30:00 UTC,2444795.562500,28.7317,-95.2428,0109,5.26,-10.79,12.0000,154.0000
1981-07-10 02:00:00 UTC,2444795.583333,28.7317,-95.2428,0109,5.24,-12.98,14.0000,158.0000
1981-07-10 02:30:00 UTC,2444795.604167,28.7317,-95.2428,0109,4.13,-14.42,15.0000,164.0000
1981-07-10 03:00:00 UTC,2444795.625000,28.7317,-95.2428,0109,1.95,-13.86,14.0000,172.0000
1981-07-10 03:30:00 UTC,2444795.645833,28.7317,-95.2428,0109,0.00,-13.00,13.0000,180.0000
1981-07-10 04:00:00 UTC,2444795.666667,28.7317,-95.2428,0109,-1.81,-12.87,13.0000,188.0000
1981-07-10 04:30:00 UTC,2444795.687500,28.7317,-95.2428,0109,-3.80,-12.43,13.0000,197.0000
1981-07-10 05:00:00 UTC,2444795.708333,28.7317,-95.2428,0109,-5.92,-12.69,14.0000,205.0000
1981-07-10 05:30:00 UTC,2444795.729167,28.7317,-95.2428,0109,-7.83,-11.61,14.0000,214.0000
1981-07-10 06:00:00 UTC,2444795.750000,28.7317,-95.2428,0109,-10.24,-9.55,14.0000,227.0000
1981-07-10 06:30:00 UTC,2444795.770833,28.7317,-95.2428,0109,-11.48,-6.10,13.0000,242.0000
1981-07-10 07:00:00 UTC,2444795.791667,28.7317,-95.2428,0109,-11.54,-3.31,12.0000,254.0000
1981-07-10 07:30:00 UTC,2444795.812500,28.7317,-95.2428,0109,-10.97,-0.77,11.0000,266.0000
1981-07-10 08:00:00 UTC,2444795.833333,28.7317,-95.2428,0109,-8.89,1.41,9.0000,279.0000
1981-07-10 08:30:00 UTC,2444795.854167,28.7317,-95.2428,0109,-6.76,1.81,7.0000,285.0000
1981-07-10 09:00:00 UTC,2444795.875000,28.7317,-95.2428,0109,-4.53,2.11,5.0000,295.0000
1981-07-10 09:30:00 UTC,2444795.895833,28.7317,-95.2428,0109,-3.66,3.41,5.0000,313.0000
1981-07-10 10:00:00 UTC,2444795.916667,28.7317,-95.2428,0109,-3.76,7.06,8.0000,332.0000
1981-07-10 10:30:00 UTC,2444795.937500,28.7317,-95.2428,0109,-2.48,12.76,13.0000,349.0000
1981-07-10 11:00:00 UTC,2444795.958333,28.7317,-95.2428,0109,0.30,17.00,17.0000,1.0000
1981-07-10 11:30:00 UTC,2444795.979167,28.7317,-95.2428,0109,3.30,18.71,19.0000,10.0000
1981-07-10 12:00:00 UTC,2444796.000000,28.7317,-95.2428,0109,5.51,19.23,20.0000,16.0000
1981-07-10 12:30:00 UTC,2444796.020833,28.7317,-95.2428,0109,6.84,19.86,21.0000,19.0000
1981-07-10 13:00:00 UTC,2444796.041667,28.7317,-95.2428,0109,7.87,19.47,21.0000,22.0000
1981-07-10 13:30:00 UTC,2444796.062500,28.7317,-95.2428,0109,8.88,19.03,21.0000,25.0000
1981-07-10 14:00:00 UTC,2444796.083333,28.7317,-95.2428,0109,9.53,18.71,21.0000,27.0000
1981-07-10 14:30:00 UTC,2444796.104167,28.7317,-95.2428,0109,8.13,18.27,20.0000,24.0000
1981-07-10 15:00:00 UTC,2444796.125000,28.7317,-95.2428,0109,8.45,18.13,20.0000,25.0000
1981-07-10 15:30:00 UTC,2444796.145833,28.7317,-95.2428,0109,10.30,17.14,20.0000,31.0000
1981-07-10 16:00:00 UTC,2444796.166667,28.7317,-95.2428,0109,11.70,14.97,19.0000,38.0000
1981-07-10 16:30:00 UTC,2444796.187500,28.7317,-95.2428,0109,12.28,13.16,18.0000,43.0000
1981-07-10 17:00:00 UTC,2444796.208333,28.7317,-95.2428,0109,11.70,10.91,16.0000,47.0000
1981-07-10 17:30:00 UTC,2444796.229167,28.7317,-95.2428,0109,12.78,9.63,16.0000,53.0000
1981-07-10 18:00:00 UTC,2444796.250000,28.7317,-95.2428,0109,13.71,8.24,16.0000,59.0000
1981-07-10 18:30:00 UTC,2444796.270833,28.7317,-95.2428,0109,14.50,6.76,16.0000,65.0000
1981-07-10 19:00:00 UTC,2444796.291667,28.7317,-95.2428,0109,15.04,5.47,16.0000,70.0000
1981-07-10 19:30:00 UTC,2444796.312500,28.7317,-95.2428,0109,14.42,4.13,15.0000,74.0000
1981-07-10 20:00:00 UTC,2444796.333333,28.7317,-95.2428,0109,13.92,1.46,14.0000,84.0000
1981-07-10 20:30:00 UTC,2444796.354167,28.7317,-95.2428,0109,12.56,-3.36,13.0000,105.0000
1981-07-10 21:00:00 UTC,2444796.375000,28.7317,-95.2428,0109,11.87,-7.42,14.0000,122.0000
1981-07-10 21:30:00 UTC,2444796.395833,28.7317,-95.2428,0109,11.18,-8.43,14.0000,127.0000
1981-07-10 22:00:00 UTC,2444796.416667,28.7317,-95.2428,0109,10.24,-8.00,13.0000,128.0000
1981-07-10 22:30:00 UTC,2444796.437500,28.7317,-95.2428,0109,9.51,-8.87,13.0000,133.0000
1981-07-10 23:00:00 UTC,2444796.458333,28.7317,-95.2428,0109,8.70,-9.66,13.0000,138.0000
1981-07-10 23:30:00 UTC,2444796.479167,28.7317,-95.2428,0109,7.55,-9.33,12.0000,141.0000
1981-07-11 00:00:00 UTC,2444796.500000,28.7317,-95.2428,0109,6.62,-8.78,11.0000,143.0000
1981-07-11 00:30:00 UTC,2444796.520833,28.7317,-95.2428,0109,4.77,-7.63,9.0000,148.0000
1981-07-11 01:00:00 UTC,2444796.541667,28.7317,-95.2428,0109,3.80,-8.16,9.0000,155.0000
1981-07-11 01:30:00 UTC,2444796.562500,28.7317,-95.2428,0109,2.63,-8.61,9.0000,163.0000
1981-07-11 02:00:00 UTC,2444796.583333,28.7317,-95.2428,0109,1.81,-6.76,7.0000,165.0000
1981-07-11 02:30:00 UTC,2444796.604167,28.7317,-95.2428,0109,3.18,-6.24,7.0000,153.0000
1981-07-11 03:00:00 UTC,2444796.625000,28.7317,-95.2428,0109,6.25,-6.47,9.0000,136.0000
1981-07-11 03:30:00 UTC,2444796.645833,28.7317,-95.2428,0109,8.78,-6.62,11.0000,127.0000
1981-07-11 04:00:00 UTC,2444796.666667,28.7317,-95.2428,0109,9.96,-8.36,13.0000,130.0000
1981-07-11 04:30:00 UTC,2444796.687500,28.7317,-95.2428,0109,9.55,-10.24,14.0000,137.0000
1981-07-11 05:00:00 UTC,2444796.708333,28.7317,-95.2428,0109,8.36,-9.96,13.0000,140.0000
1981-07-11 05:30:00 UTC,2444796.729167,28.7317,-95.2428,0109,7.71,-9.19,12.0000,140.0000
1981-07-11 06:00:00 UTC,2444796.750000,28.7317,-95.2428,0109,7.05,-9.71,12.0000,144.0000
1981-07-11 06:30:00 UTC,2444796.770833,28.7317,-95.2428,0109,6.36,-10.18,12.0000,148.0000
1981-07-11 07:00:00 UTC,2444796.791667,28.7317,-95.2428,0109,6.30,-11.37,13.0000,151.0000
1981-07-11 07:30:00 UTC,2444796.812500,28.7317,-95.2428,0109,4.45,-12.22,13.0000,160.0000
1981-07-11 08:00:00 UTC,2444796.833333,28.7317,-95.2428,0109,1.57,-14.92,15.0000,174.0000
1981-07-11 08:30:00 UTC,2444796.854167,28.7317,-95.2428,0109,-0.28,-16.00,16.0000,181.0000
1981-07-11 09:00:00 UTC,2444796.875000,28.7317,-95.2428,0109,-1.19,-16.96,17.0000,184.0000
1981-07-11 09:30:00 UTC,2444796.895833,28.7317,-95.2428,0109,-1.95,-15.88,16.0000,187.0000
1981-07-11 10:00:00 UTC,2444796.916667,28.7317,-95.2428,0109,-2.78,-15.76,16.0000,190.0000
1981-07-11 10:30:00 UTC,2444796.937500,28.7317,-95.2428,0109,-4.56,-13.24,14.0000,199.0000
1981-07-11 11:00:00 UTC,2444796.958333,28.7317,-95.2428,0109,-6.89,-11.02,13.0000,212.0000
1981-07-11 11:30:00 UTC,2444796.979167,28.7317,-95.2428,0109,-8.18,-10.10,13.0000,219.0000
1981-07-11 12:00:00 UTC,2444797.000000,28.7317,-95.2428,0109,-7.64,-10.52,13.0000,216.0000
1981-07-11 12:30:00 UTC,2444797.020833,28.7317,-95.2428,0109,-7.42,-11.87,14.0000,212.0000
1981-07-11 13:00:00 UTC,2444797.041667,28.7317,-95.2428,0109,-7.42,-11.87,14.0000,212.0000
1981-07-11 13:30:00 UTC,2444797.062500,28.7317,-95.2428,0109,-7.39,-9.46,12.0000,218.0000
1981-07-11 14:00:00 UTC,2444797.083333,28.7317,-95.2428,0109,-7.36,-8.17,11.0000,222.0000
1981-07-11 14:30:00 UTC,2444797.104167,28.7317,-95.2428,0109,-6.16,-7.88,10.0000,218.0000
1981-07-11 15:00:00 UTC,2444797.125000,28.7317,-95.2428,0109,-5.16,-7.37,9.0000,215.0000
1981-07-11 15:30:00 UTC,2444797.145833,28.7317,-95.2428,0109,-5.16,-7.37,9.0000,215.0000
1981-07-11 16:00:00 UTC,2444797.166667,28.7317,-95.2428,0109,-5.30,-8.48,10.0000,212.0000
1981-07-11 16:30:00 UTC,2444797.187500,28.7317,-95.2428,0109,-5.50,-9.53,11.0000,210.0000
1981-07-11 17:00:00 UTC,2444797.208333,28.7317,-95.2428,0109,-5.07,-10.88,12.0000,205.0000
1981-07-11 17:30:00 UTC,2444797.229167,28.7317,-95.2428,0109,-3.91,-11.35,12.0000,199.0000
1981-07-11 18:00:00 UTC,2444797.250000,28.7317,-95.2428,0109,-4.02,-12.36,13.0000,198.0000
1981-07-11 18:30:00 UTC,2444797.270833,28.7317,-95.2428,0109,-4.79,-13.16,14.0000,200.0000
1981-07-11 19:00:00 UTC,2444797.291667,28.7317,-95.2428,0109,-4.88,-14.18,15.0000,199.0000
1981-07-11 19:30:00 UTC,2444797.312500,28.7317,-95.2428,0109,-6.25,-14.73,16.0000,203.0000
1981-07-11 20:00:00 UTC,2444797.333333,28.7317,-95.2428,0109,-7.04,-13.24,15.0000,208.0000
1981-07-11 20:30:00 UTC,2444797.354167,28.7317,-95.2428,0109,-7.72,-15.15,17.0000,207.0000
1981-07-11 21:00:00 UTC,2444797.375000,28.7317,-95.2428,0109,-8.92,-16.78,19.0000,208.0000
1981-07-11 21:30:00 UTC,2444797.395833,28.7317,-95.2428,0109,-10.60,-16.96,20.0000,212.0000
1981-07-11 22:00:00 UTC,2444797.416667,28.7317,-95.2428,0109,-10.60,-16.96,20.0000,212.0000
1981-07-11 22:30:00 UTC,2444797.437500,28.7317,-95.2428,0109,-9.50,-16.45,19.0000,210.0000
1981-07-11 23:00:00 UTC,2444797.458333,28.7317,-95.2428,0109,-8.45,-15.89,18.0000,208.0000
1981-07-11 23:30:00 UTC,2444797.479167,28.7317,-95.2428,0109,-8.17,-16.04,18.0000,207.0000
1981-07-12 00:00:00 UTC,2444797.500000,28.7317,-95.2428,0109,-7.61,-16.31,18.0000,205.0000
1981-07-12 00:30:00 UTC,2444797.520833,28.7317,-95.2428,0109,-7.42,-17.49,19.0000,203.0000
1981-07-12 01:00:00 UTC,2444797.541667,28.7317,-95.2428,0109,-8.63,-16.93,19.0000,207.0000
1981-07-12 01:30:00 UTC,2444797.562500,28.7317,-95.2428,0109,-11.47,-16.38,20.0000,215.0000
1981-07-12 02:00:00 UTC,2444797.583333,28.7317,-95.2428,0109,-12.96,-13.90,19.0000,223.0000
1981-07-12 02:30:00 UTC,2444797.604167,28.7317,-95.2428,0109,-10.42,-10.79,15.0000,224.0000
1981-07-12 03:00:00 UTC,2444797.625000,28.7317,-95.2428,0109,-7.22,-9.58,12.0000,217.0000
1981-07-12 03:30:00 UTC,2444797.645833,28.7317,-95.2428,0109,-5.45,-8.39,10.0000,213.0000
1981-07-12 04:00:00 UTC,2444797.666667,28.7317,-95.2428,0109,-6.69,-7.43,10.0000,222.0000
1981-07-12 04:30:00 UTC,2444797.687500,28.7317,-95.2428,0109,-7.64,-7.91,11.0000,224.0000
1981-07-12 05:00:00 UTC,2444797.708333,28.7317,-95.2428,0109,-8.70,-9.66,13.0000,222.0000
1981-07-12 05:30:00 UTC,2444797.729167,28.7317,-95.2428,0109,-9.73,-10.07,14.0000,224.0000
1981-07-12 06:00:00 UTC,2444797.750000,28.7317,-95.2428,0109,-9.51,-8.87,13.0000,227.0000
1981-07-12 06:30:00 UTC,2444797.770833,28.7317,-95.2428,0109,-8.67,-6.77,11.0000,232.0000
1981-07-12 07:00:00 UTC,2444797.791667,28.7317,-95.2428,0109,-7.55,-4.90,9.0000,237.0000
1981-07-12 07:30:00 UTC,2444797.812500,28.7317,-95.2428,0109,-7.19,-5.42,9.0000,233.0000
1981-07-12 08:00:00 UTC,2444797.833333,28.7317,-95.2428,0109,-7.19,-6.95,10.0000,226.0000
1981-07-12 08:30:00 UTC,2444797.854167,28.7317,-95.2428,0109,-7.07,-7.07,10.0000,225.0000
1981-07-12 09:00:00 UTC,2444797.875000,28.7317,-95.2428,0109,-7.55,-6.56,10.0000,229.0000
1981-07-12 09:30:00 UTC,2444797.895833,28.7317,-95.2428,0109,-7.28,-5.29,9.0000,234.0000
1981-07-12 10:00:00 UTC,2444797.916667,28.7317,-95.2428,0109,-6.71,-4.36,8.0000,237.0000
1981-07-12 10:30:00 UTC,2444797.937500,28.7317,-95.2428,0109,-5.66,-4.11,7.0000,234.0000
1981-07-12 11:00:00 UTC,2444797.958333,28.7317,-95.2428,0109,-5.52,-4.31,7.0000,232.0000
1981-07-12 11:30:00 UTC,2444797.979167,28.7317,-95.2428,0109,-5.73,-4.02,7.0000,235.0000
1981-07-12 12:00:00 UTC,2444798.000000,28.7317,-95.2428,0109,-6.30,-4.93,8.0000,232.0000
1981-07-12 12:30:00 UTC,2444798.020833,28.7317,-95.2428,0109,-4.59,-5.28,7.0000,221.0000
1981-07-12 13:00:00 UTC,2444798.041667,28.7317,-95.2428,0109,-3.91,-5.80,7.0000,214.0000
1981-07-12 13:30:00 UTC,2444798.062500,28.7317,-95.2428,0109,-5.03,-6.22,8.0000,219.0000
1981-07-12 14:00:00 UTC,2444798.083333,28.7317,-95.2428,0109,-5.36,-4.50,7.0000,230.0000
1981-07-12 14:30:00 UTC,2444798.104167,28.7317,-95.2428,0109,-6.29,-3.07,7.0000,244.0000
1981-07-12 15:00:00 UTC,2444798.125000,28.7317,-95.2428,0109,-6.62,-2.28,7.0000,251.0000
1981-07-12 15:30:00 UTC,2444798.145833,28.7317,-95.2428,0109,-6.91,-1.10,7.0000,261.0000
1981-07-12 16:00:00 UTC,2444798.166667,28.7317,-95.2428,0109,-5.98,0.52,6.0000,275.0000
1981-07-12 16:30:00 UTC,2444798.187500,28.7317,-95.2428,0109,-4.96,0.61,5.0000,277.0000
1981-07-12 17:00:00 UTC,2444798.208333,28.7317,-95.2428,0109,-3.96,-0.56,4.0000,262.0000
1981-07-12 17:30:00 UTC,2444798.229167,28.7317,-95.2428,0109,-2.80,-1.08,3.0000,249.0000
1981-07-12 18:00:00 UTC,2444798.250000,28.7317,-95.2428,0109,-2.94,-0.57,3.0000,259.0000
1981-07-12 18:30:00 UTC,2444798.270833,28.7317,-95.2428,0109,-2.93,0.62,3.0000,282.0000
1981-07-12 19:00:00 UTC,2444798.291667,28.7317,-95.2428,0109,-2.82,1.03,3.0000,290.0000
1981-07-12 19:30:00 UTC,2444798.312500,28.7317,-95.2428,0109,-1.70,1.06,2.0000,302.0000
1981-07-12 20:00:00 UTC,2444798.333333,28.7317,-95.2428,0109,-0.37,0.93,1.0000,338.0000
1981-07-12 20:30:00 UTC,2444798.354167,28.7317,-95.2428,0109,0.79,-0.62,1.0000,128.0000
1981-07-12 21:00:00 UTC,2444798.375000,28.7317,-95.2428,0109,1.89,-2.33,3.0000,141.0000
1981-07-12 21:30:00 UTC,2444798.395833,28.7317,-95.2428,0109,3.28,-3.77,5.0000,139.0000
1981-07-12 22:00:00 UTC,2444798.416667,28.7317,-95.2428,0109,4.60,-3.86,6.0000,130.0000
1981-07-12 22:30:00 UTC,2444798.437500,28.7317,-95.2428,0109,5.66,-4.11,7.0000,126.0000
1981-07-12 23:00:00 UTC,2444798.458333,28.7317,-95.2428,0109,6.30,-4.93,8.0000,128.0000
1981-07-12 23:30:00 UTC,2444798.479167,28.7317,-95.2428,0109,7.66,-6.43,10.0000,130.0000
1981-07-13 00:00:00 UTC,2444798.500000,28.7317,-95.2428,0109,8.63,-8.34,12.0000,134.0000
1981-07-13 00:30:00 UTC,2444798.520833,28.7317,-95.2428,0109,7.64,-10.52,13.0000,144.0000
1981-07-13 01:00:00 UTC,2444798.541667,28.7317,-95.2428,0109,4.23,-12.29,13.0000,161.0000
1981-07-13 01:30:00 UTC,2444798.562500,28.7317,-95.2428,0109,-0.73,-13.98,14.0000,183.0000
1981-07-13 02:00:00 UTC,2444798.583333,28.7317,-95.2428,0109,-4.97,-16.26,17.0000,197.0000
1981-07-13 02:30:00 UTC,2444798.604167,28.7317,-95.2428,0109,-8.17,-16.04,18.0000,207.0000
1981-07-13 03:00:00 UTC,2444798.625000,28.7317,-95.2428,0109,-9.64,-11.49,15.0000,220.0000
1981-07-13 03:30:00 UTC,2444798.645833,28.7317,-95.2428,0109,-8.19,-5.74,10.0000,235.0000
1981-07-13 04:00:00 UTC,2444798.666667,28.7317,-95.2428,0109,-6.85,-1.46,7.0000,258.0000
1981-07-13 04:30:00 UTC,2444798.687500,28.7317,-95.2428,0109,-6.62,2.28,7.0000,289.0000
1981-07-13 05:00:00 UTC,2444798.708333,28.7317,-95.2428,0109,-5.75,5.56,8.0000,314.0000
1981-07-13 05:30:00 UTC,2444798.729167,28.7317,-95.2428,0109,-4.36,7.87,9.0000,331.0000
1981-07-13 06:00:00 UTC,2444798.750000,28.7317,-95.2428,0109,-4.69,8.83,10.0000,332.0000
1981-07-13 06:30:00 UTC,2444798.770833,28.7317,-95.2428,0109,-5.82,10.50,12.0000,331.0000
1981-07-13 07:00:00 UTC,2444798.791667,28.7317,-95.2428,0109,-5.92,12.69,14.0000,335.0000
1981-07-13 07:30:00 UTC,2444798.812500,28.7317,-95.2428,0109,-5.38,14.00,15.0000,339.0000
1981-07-13 08:00:00 UTC,2444798.833333,28.7317,-95.2428,0109,-4.64,14.27,15.0000,342.0000
1981-07-13 08:30:00 UTC,2444798.854167,28.7317,-95.2428,0109,-3.88,14.49,15.0000,345.0000
1981-07-13 09:00:00 UTC,2444798.875000,28.7317,-95.2428,0109,-2.60,14.77,15.0000,350.0000
1981-07-13 09:30:00 UTC,2444798.895833,28.7317,-95.2428,0109,-2.60,14.77,15.0000,350.0000
1981-07-13 10:00:00 UTC,2444798.916667,28.7317,-95.2428,0109,-3.63,14.55,15.0000,346.0000
1981-07-13 10:30:00 UTC,2444798.937500,28.7317,-95.2428,0109,-4.79,13.16,14.0000,340.0000
1981-07-13 11:00:00 UTC,2444798.958333,28.7317,-95.2428,0109,-5.47,12.89,14.0000,337.0000
1981-07-13 11:30:00 UTC,2444798.979167,28.7317,-95.2428,0109,-5.92,12.69,14.0000,335.0000
1981-07-13 12:00:00 UTC,2444799.000000,28.7317,-95.2428,0109,-6.36,12.47,14.0000,333.0000
1981-07-13 12:30:00 UTC,2444799.020833,28.7317,-95.2428,0109,-7.00,12.12,14.0000,330.0000
1981-07-13 13:00:00 UTC,2444799.041667,28.7317,-95.2428,0109,-7.76,13.99,16.0000,331.0000
1981-07-13 13:30:00 UTC,2444799.062500,28.7317,-95.2428,0109,-7.03,16.57,18.0000,337.0000
1981-07-13 14:00:00 UTC,2444799.083333,28.7317,-95.2428,0109,-5.85,19.13,20.0000,343.0000
1981-07-13 14:30:00 UTC,2444799.104167,28.7317,-95.2428,0109,-5.44,20.28,21.0000,345.0000
1981-07-13 15:00:00 UTC,2444799.125000,28.7317,-95.2428,0109,-6.34,22.11,23.0000,344.0000
1981-07-13 15:30:00 UTC,2444799.145833,28.7317,-95.2428,0109,-6.89,24.03,25.0000,344.0000
1981-07-13 16:00:00 UTC,2444799.166667,28.7317,-95.2428,0109,-6.47,24.15,25.0000,345.0000
1981-07-13 16:30:00 UTC,2444799.187500,28.7317,-95.2428,0109,-4.78,22.50,23.0000,348.0000
1981-07-13 17:00:00 UTC,2444799.208333,28.7317,-95.2428,0109,-2.56,20.84,21.0000,353.0000
1981-07-13 17:30:00 UTC,2444799.229167,28.7317,-95.2428,0109,-0.94,17.98,18.0000,357.0000
1981-07-13 18:00:00 UTC,2444799.250000,28.7317,-95.2428,0109,-0.56,15.99,16.0000,358.0000
1981-07-13 18:30:00 UTC,2444799.270833,28.7317,-95.2428,0109,-1.58,12.90,13.0000,353.0000
1981-07-13 19:00:00 UTC,2444799.291667,28.7317,-95.2428,0109,-3.31,11.54,12.0000,344.0000
1981-07-13 19:30:00 UTC,2444799.312500,28.7317,-95.2428,0109,-4.30,11.20,12.0000,339.0000
1981-07-13 20:00:00 UTC,2444799.333333,28.7317,-95.2428,0109,-4.30,10.13,11.0000,337.0000
1981-07-13 20:30:00 UTC,2444799.354167,28.7317,-95.2428,0109,-3.91,9.21,10.0000,337.0000
1981-07-13 21:00:00 UTC,2444799.375000,28.7317,-95.2428,0109,-3.37,8.34,9.0000,338.0000
1981-07-13 21:30:00 UTC,2444799.395833,28.7317,-95.2428,0109,-2.74,6.44,7.0000,337.0000
1981-07-13 22:00:00 UTC,2444799.416667,28.7317,-95.2428,0109,-3.27,5.03,6.0000,327.0000
1981-07-13 22:30:00 UTC,2444799.437500,28.7317,-95.2428,0109,-4.24,2.65,5.0000,302.0000
1981-07-13 23:00:00 UTC,2444799.458333,28.7317,-95.2428,0109,-5.93,0.94,6.0000,279.0000
1981-07-13 23:30:00 UTC,2444799.479167,28.7317,-95.2428,0109,-7.96,0.84,8.0000,276.0000
1981-07-14 00:00:00 UTC,2444799.500000,28.7317,-95.2428,0109,-8.99,0.47,9.0000,273.0000
1981-07-14 00:30:00 UTC,2444799.520833,28.7317,-95.2428,0109,-7.90,-1.25,8.0000,261.0000
1981-07-14 01:00:00 UTC,2444799.541667,28.7317,-95.2428,0109,-9.78,-2.08,10.0000,258.0000
1981-07-14 01:30:00 UTC,2444799.562500,28.7317,-95.2428,0109,-11.98,-0.63,12.0000,267.0000
1981-07-14 02:00:00 UTC,2444799.583333,28.7317,-95.2428,0109,-13.95,1.22,14.0000,275.0000
1981-07-14 02:30:00 UTC,2444799.604167,28.7317,-95.2428,0109,-13.74,2.67,14.0000,281.0000
1981-07-14 03:00:00 UTC,2444799.625000,28.7317,-95.2428,0109,-12.43,3.80,13.0000,287.0000
1981-07-14 03:30:00 UTC,2444799.645833,28.7317,-95.2428,0109,-11.35,3.91,12.0000,289.0000
1981-07-14 04:00:00 UTC,2444799.666667,28.7317,-95.2428,0109,-10.72,2.47,11.0000,283.0000
1981-07-14 04:30:00 UTC,2444799.687500,28.7317,-95.2428,0109,-9.85,1.74,10.0000,280.0000
1981-07-14 05:00:00 UTC,2444799.708333,28.7317,-95.2428,0109,-9.70,2.42,10.0000,284.0000
1981-07-14 05:30:00 UTC,2444799.729167,28.7317,-95.2428,0109,-9.27,3.75,10.0000,292.0000
1981-07-14 06:00:00 UTC,2444799.750000,28.7317,-95.2428,0109,-9.62,5.33,11.0000,299.0000
1981-07-14 06:30:00 UTC,2444799.770833,28.7317,-95.2428,0109,-9.01,6.31,11.0000,305.0000
1981-07-14 07:00:00 UTC,2444799.791667,28.7317,-95.2428,0109,-7.78,7.78,11.0000,315.0000
1981-07-14 07:30:00 UTC,2444799.812500,28.7317,-95.2428,0109,-6.47,8.90,11.0000,324.0000
1981-07-14 08:00:00 UTC,2444799.833333,28.7317,-95.2428,0109,-6.31,9.01,11.0000,325.0000